Hourly Weather Golebie

Today, 17 May, Monday

Time Temperature Precipitation Wind Pressure Humidity
00:00 +12°C° 0 mm 2 mps 736 mmHg 95%
01:00 +12°C° 0 mm 2 mps 736 mmHg 95%
02:00 +10°C° 0 mm 2 mps 736 mmHg 96%
03:00 +10°C° 0 mm 2 mps 736 mmHg 96%
04:00 +10°C° 0 mm 2 mps 736 mmHg 95%
05:00 +10°C° 0 mm 2 mps 736 mmHg 95%
06:00 +12°C° 0 mm 1 mps 736 mmHg 90%
07:00 +13°C° 0 mm 1 mps 736 mmHg 85%
08:00 +14°C° 0 mm 0 mps 736 mmHg 80%
09:00 +15°C° 0 mm 0 mps 736 mmHg 74%
10:00 +18°C° 0 mm 1 mps 736 mmHg 68%
11:00 +20°C° 0 mm 1 mps 735 mmHg 62%
12:00 +20°C° 0 mm 1 mps 735 mmHg 59%
13:00 +20°C° 0 mm 1 mps 735 mmHg 57%
14:00 +21°C° 0 mm 1 mps 735 mmHg 54%
15:00 +20°C° 0 mm 2 mps 735 mmHg 56%
16:00 +20°C° 0 mm 2 mps 734 mmHg 57%
17:00 +19°C° 0 mm 2 mps 734 mmHg 59%
18:00 +18°C° 0 mm 2 mps 734 mmHg 66%
19:00 +16°C° 0 mm 2 mps 734 mmHg 72%
20:00 +15°C° 0 mm 2 mps 734 mmHg 78%
21:00 +14°C° 0 mm 2 mps 734 mmHg 80%
22:00 +13°C° 0 mm 1 mps 734 mmHg 82%
23:00 +12°C° 0 mm 1 mps 734 mmHg 84%

Tomorrow, 18 May, Tuesday

Time Temperature Precipitation Wind Pressure Humidity
00:00 +12°C° 0 mm 1 mps 733 mmHg 85%
01:00 +11°C° 0 mm 0 mps 733 mmHg 86%
02:00 +10°C° 0 mm 0 mps 733 mmHg 86%
03:00 +11°C° 0 mm 1 mps 733 mmHg 87%
04:00 +11°C° 0 mm 1 mps 733 mmHg 88%
05:00 +11°C° 0 mm 1 mps 733 mmHg 89%
06:00 +13°C° 0 mm 2 mps 733 mmHg 84%
07:00 +14°C° 0 mm 2 mps 733 mmHg 80%
08:00 +16°C° 0 mm 2 mps 733 mmHg 76%
09:00 +17°C° 0.3 mm 3 mps 733 mmHg 72%
10:00 +18°C° 0.3 mm 3 mps 734 mmHg 68%
11:00 +19°C° 0.3 mm 4 mps 734 mmHg 65%
12:00 +19°C° 0.6 mm 5 mps 734 mmHg 66%
13:00 +19°C° 0.6 mm 5 mps 734 mmHg 68%
14:00 +19°C° 0.6 mm 6 mps 734 mmHg 69%
15:00 +16°C° 0.4 mm 6 mps 734 mmHg 73%
16:00 +15°C° 0.4 mm 7 mps 734 mmHg 77%
17:00 +14°C° 0.4 mm 7 mps 735 mmHg 82%
18:00 +14°C° 0 mm 7 mps 735 mmHg 83%
19:00 +12°C° 0 mm 7 mps 735 mmHg 84%
20:00 +11°C° 0 mm 6 mps 736 mmHg 85%
21:00 +11°C° 0 mm 6 mps 736 mmHg 86%
22:00 +10°C° 0 mm 6 mps 736 mmHg 86%
23:00 +9°C° 0 mm 6 mps 736 mmHg 87%

Day after tomorrow, 19 May, Wednesday

Time Temperature Precipitation Wind Pressure Humidity
00:00 +9°C° 0 mm 6 mps 736 mmHg 87%
01:00 +9°C° 0 mm 5 mps 737 mmHg 87%
02:00 +9°C° 0 mm 5 mps 737 mmHg 88%
03:00 +9°C° 0 mm 5 mps 737 mmHg 89%
04:00 +8°C° 0 mm 6 mps 737 mmHg 91%
05:00 +8°C° 0 mm 6 mps 737 mmHg 93%
06:00 +9°C° 0 mm 6 mps 738 mmHg 89%
07:00 +10°C° 0 mm 6 mps 738 mmHg 85%
08:00 +11°C° 0 mm 6 mps 738 mmHg 82%
09:00 +12°C° 0 mm 7 mps 738 mmHg 77%
10:00 +14°C° 0 mm 7 mps 738 mmHg 72%
11:00 +15°C° 0 mm 7 mps 738 mmHg 67%
12:00 +15°C° 0.1 mm 6 mps 739 mmHg 68%
13:00 +15°C° 0.1 mm 6 mps 739 mmHg 70%
14:00 +15°C° 0.1 mm 6 mps 739 mmHg 71%
15:00 +15°C° 0.1 mm 5 mps 739 mmHg 71%
16:00 +15°C° 0.1 mm 5 mps 739 mmHg 70%
17:00 +15°C° 0.1 mm 5 mps 739 mmHg 70%
18:00 +14°C° 0.1 mm 4 mps 739 mmHg 76%
19:00 +12°C° 0.1 mm 3 mps 739 mmHg 82%
20:00 +11°C° 0.1 mm 3 mps 739 mmHg 88%
21:00 +10°C° 0 mm 3 mps 739 mmHg 90%
22:00 +10°C° 0 mm 3 mps 739 mmHg 92%
23:00 +9°C° 0 mm 3 mps 739 mmHg 94%

20 May, Thursday

Time Temperature Precipitation Wind Pressure Humidity
00:00 +9°C° 0 mm 3 mps 739 mmHg 94%
01:00 +8°C° 0 mm 3 mps 739 mmHg 95%
02:00 +8°C° 0 mm 3 mps 739 mmHg 95%
03:00 +8°C° 0 mm 3 mps 739 mmHg 96%
04:00 +7°C° 0 mm 3 mps 738 mmHg 96%
05:00 +7°C° 0 mm 3 mps 738 mmHg 96%
06:00 +9°C° 0 mm 3 mps 738 mmHg 92%
07:00 +10°C° 0 mm 4 mps 738 mmHg 87%
08:00 +12°C° 0 mm 5 mps 739 mmHg 83%
09:00 +13°C° 0.1 mm 5 mps 739 mmHg 77%
10:00 +14°C° 0.1 mm 6 mps 739 mmHg 72%
11:00 +15°C° 0.1 mm 6 mps 739 mmHg 67%
12:00 +15°C° 0.1 mm 7 mps 739 mmHg 67%
13:00 +15°C° 0.1 mm 7 mps 739 mmHg 67%
14:00 +15°C° 0.1 mm 7 mps 739 mmHg 67%
15:00 +14°C° 0.1 mm 7 mps 739 mmHg 69%
16:00 +14°C° 0.1 mm 7 mps 739 mmHg 71%
17:00 +14°C° 0.1 mm 6 mps 739 mmHg 72%
18:00 +13°C° 0.1 mm 6 mps 739 mmHg 74%
19:00 +12°C° 0.1 mm 5 mps 739 mmHg 77%
20:00 +10°C° 0.1 mm 5 mps 740 mmHg 79%
21:00 +10°C° 0 mm 4 mps 740 mmHg 81%
22:00 +10°C° 0 mm 4 mps 740 mmHg 83%
23:00 +8°C° 0 mm 4 mps 741 mmHg 85%

21 May, Friday

Time Temperature Precipitation Wind Pressure Humidity
00:00 +8°C° 0 mm 4 mps 741 mmHg 84%
01:00 +8°C° 0 mm 5 mps 741 mmHg 83%
02:00 +7°C° 0 mm 5 mps 742 mmHg 82%
03:00 +7°C° 0 mm 5 mps 742 mmHg 83%
04:00 +6°C° 0 mm 4 mps 743 mmHg 85%
05:00 +6°C° 0 mm 4 mps 743 mmHg 86%
06:00 +7°C° 0 mm 5 mps 743 mmHg 80%
07:00 +7°C° 0 mm 5 mps 744 mmHg 74%
08:00 +8°C° 0 mm 6 mps 744 mmHg 69%
09:00 +9°C° 0 mm 6 mps 744 mmHg 64%
10:00 +10°C° 0 mm 6 mps 744 mmHg 59%
11:00 +11°C° 0 mm 6 mps 745 mmHg 55%
12:00 +13°C° 0 mm 6 mps 745 mmHg 54%
13:00 +13°C° 0 mm 6 mps 745 mmHg 53%
14:00 +13°C° 0 mm 6 mps 744 mmHg 52%
15:00 +14°C° 0 mm 5 mps 744 mmHg 52%
16:00 +14°C° 0 mm 5 mps 744 mmHg 51%
17:00 +14°C° 0 mm 4 mps 744 mmHg 51%
18:00 +13°C° 0 mm 3 mps 744 mmHg 57%
19:00 +12°C° 0 mm 3 mps 744 mmHg 62%
20:00 +12°C° 0 mm 2 mps 744 mmHg 68%
21:00 +10°C° 0 mm 2 mps 744 mmHg 71%
22:00 +8°C° 0 mm 2 mps 744 mmHg 74%
23:00 +7°C° 0 mm 2 mps 744 mmHg 77%

22 May, Saturday

Time Temperature Precipitation Wind Pressure Humidity
00:00 +7°C° 0 mm 2 mps 744 mmHg 79%
01:00 +6°C° 0 mm 2 mps 744 mmHg 81%
02:00 +6°C° 0 mm 2 mps 744 mmHg 83%
03:00 +6°C° 0 mm 2 mps 744 mmHg 84%
04:00 +6°C° 0 mm 2 mps 744 mmHg 86%
05:00 +5°C° 0 mm 2 mps 744 mmHg 87%
06:00 +7°C° 0 mm 2 mps 744 mmHg 81%
07:00 +9°C° 0 mm 3 mps 744 mmHg 75%
08:00 +11°C° 0 mm 3 mps 744 mmHg 69%
09:00 +12°C° 0 mm 4 mps 744 mmHg 65%
10:00 +14°C° 0 mm 4 mps 744 mmHg 61%
11:00 +17°C° 0 mm 4 mps 744 mmHg 56%
12:00 +18°C° 0 mm 4 mps 743 mmHg 54%
13:00 +18°C° 0 mm 4 mps 743 mmHg 52%
14:00 +19°C° 0 mm 4 mps 743 mmHg 49%
15:00 +19°C° 0 mm 4 mps 743 mmHg 52%
16:00 +19°C° 0 mm 3 mps 742 mmHg 54%
17:00 +19°C° 0 mm 3 mps 742 mmHg 57%
18:00 +18°C° 0 mm 3 mps 742 mmHg 63%
19:00 +16°C° 0 mm 3 mps 742 mmHg 69%
20:00 +14°C° 0 mm 3 mps 742 mmHg 75%
21:00 +13°C° 0 mm 3 mps 742 mmHg 75%
22:00 +12°C° 0 mm 3 mps 742 mmHg 76%
23:00 +12°C° 0 mm 3 mps 742 mmHg 76%
Show more